Location: Unspecified
(0.0000°N, 0.0000°E)
Time: 14:52:52
(UTC+01:00)

Daily predictions for brighter satellites

Satellite Brightness Start Highest point End
(mag) Time Altitude Azimuth Time Altitude Azimuth Time Altitude Azimuth
Cosmos 2227 Rocket 3.8 19:30:43 10° SE 19:33:33 14° ESE 19:36:24 10° ENE
FREGAT/IRIS 4.2 19:35:06 10° ESE 19:37:14 17° E 19:39:22 10° NE
Cosmos 1697 Rocket 4.5 19:40:31 10° NW 19:45:38 37° WSW 19:50:46 10° S
Cosmos 1741 Rocket 4.1 19:40:43 10° SSW 19:45:59 82° WNW 19:51:13 10° N
Okean 1 3.7 19:44:14 10° NNE 19:48:04 42° E 19:51:56 10° SSE
GPS 2-17 Rocket1 4.4 19:45:47 10° SW 19:49:49 28° SSE 19:53:34 11° ESE
Cosmos 1980 Rocket 2.7 19:44:26 10° NNW 19:50:05 68° WSW 19:55:44 10° S
Cosmos 1633 3.9 19:49:25 10° SSW 19:52:55 44° W 19:56:26 10° NNW
Cosmos 1812 3.2 19:54:53 10° NNW 19:58:41 65° W 20:02:31 10° S
Ariane 42L R/B 2.5 20:01:08 10° WNW 20:03:22 29° N 20:04:26 19° NE
Cosmos 1238 Rocket 3.3 20:00:56 10° NNE 20:03:39 26° E 20:06:43 10° SSE
Okean 1 Rocket 3.6 20:00:37 10° SSW 20:05:01 63° W 20:09:27 10° N
ARIANE 5 DEB (SYLDA) 4.4 19:54:20 10° W 20:07:11 64° S 20:10:17 18° ESE
Cosmos 44 Rocket 3.1 20:05:41 10° NNW 20:10:18 69° ENE 20:14:57 10° SSE
BLOCK DM-SL R/B 3.1 20:12:49 10° W 20:16:36 90° E 20:20:52 22° E
Meteor 1-5 Rocket 4.3 20:13:58 10° S 20:19:53 87° E 20:25:51 10° N
GPS 2-15 Rocket1 4.0 20:18:28 10° W 20:22:54 39° NNW 20:25:12 23° NNE
Palapa B4 Rocket 3.2 20:19:08 10° NW 20:23:21 45° NNE 20:24:13 37° ENE
Ariane H10-3 2.4 20:20:54 10° W 20:23:39 67° S 20:27:51 23° ESE
deb Ariane 3.6 20:21:16 10° WSW 20:24:23 43° S 20:25:06 34° SE
SL-16 R/B 2.1 20:18:46 10° N 20:24:24 72° ENE 20:30:01 10° SSE
CENTAUR R/B 3.2 20:17:45 10° NNW 20:26:09 83° WSW 20:34:15 10° SSE
ERBS 2.1 20:22:46 10° NNW 20:26:12 79° ENE 20:27:34 34° SE
Cosmos 44 2.9 20:22:22 10° NNW 20:26:35 60° ENE 20:30:42 11° SSE
Spot 2 Rocket 3.7 20:22:04 10° SSE 20:26:49 42° ENE 20:31:33 10° N
Intercosmos 24 4.3 20:26:22 10° SSW 20:29:54 55° W 20:33:29 10° N
Ariane H10 3.9 20:26:34 10° WSW 20:30:19 26° SSW 20:31:04 22° SSE
SJ-6B 3.6 20:26:27 10° S 20:30:30 56° WSW 20:34:30 10° NNW
FENGYUN 3A 3.5 20:25:10 10° SSE 20:30:31 69° ENE 20:35:53 10° N
Ariane H10+ 4.4 20:06:32 10° W 20:32:01 73° N 20:35:45 32° ENE
Cosmos 2082 3.8 20:26:43 10° S 20:32:18 55° ESE 20:35:02 29° NE
Atlas Centaur 2 3.7 20:26:55 10° W 20:33:51 37° NW 20:38:04 18° NNE
Helios 1B rocket 3.3 20:29:57 10° N 20:33:56 50° WNW 20:37:57 10° SSW
Cosmos 1544 Rocket 3.5 20:32:01 10° S 20:36:20 57° E 20:36:55 52° ENE
Meteosat 1 Rocket2 4.3 20:35:51 10° NNW 20:38:07 24° N 20:38:07 24° N
Meteor 1-19 Rocket 4.1 20:34:37 10° N 20:40:23 78° E 20:46:15 10° S
Cosmos 1610 Rocket 4.4 20:34:30 10° S 20:40:52 87° E 20:47:07 10° N
Cosmos 2322 Rocket 2.4 20:36:03 10° NNW 20:41:38 71° WSW 20:47:15 10° S
XTE 4.4 20:40:46 10° W 20:42:52 36° WNW 20:42:52 36° WNW
ALOS 2.9 20:45:59 10° S 20:50:33 56° WSW 20:55:07 10° NNW
Cosmos 1340 4.0 20:47:02 10° NNW 20:50:34 39° W 20:54:07 10° SSW
Ariane H10 4.4 20:51:27 10° W 20:52:51 31° W 20:52:51 31° W
Cosmos 2297 Rocket 2.0 20:52:04 10° SSW 20:57:44 87° E 20:58:51 59° NNE
Resurs 01 Rocket 2.0 20:54:24 10° S 20:58:46 61° WSW 21:03:07 10° NNW
Cosmos 1486 Rocket 4.1 20:59:33 10° SSW 21:04:52 72° WNW 21:05:49 57° NNW
Maqsat-H 2.5 21:05:14 10° W 21:07:48 41° WNW 21:07:48 41° WNW
Meteor 2-4 Rocket 3.7 21:05:46 10° N 21:11:06 73° W 21:16:27 10° S
Cosmos 1455 Rocket 4.2 21:10:02 10° SSW 21:13:12 40° SW 21:13:12 40° SW
Cosmos 2227 Rocket 3.4 21:12:07 10° SW 21:17:19 39° WNW 21:20:09 23° NNW
Delta 198 4.4 21:12:24 10° WNW 21:17:43 70° SW 21:17:43 70° SW
Ariane 42P Rocket 4.4 20:34:33 10° W 21:27:50 89° N 21:29:05 71° E
Cosmos 2341 Rocket 4.3 21:22:53 10° SSW 21:29:05 65° W 21:29:11 65° W
ARIANE 5 R/B 3.8 21:32:08 10° W 21:47:40 55° WSW 21:47:40 55° WSW
